Temperature
21 21 21 20 19 19 18 18 18 17 17 17 17 17 17 16 16 16 16 16 15 15 15 14 14 14 14 14 14 14 14 14 14 14 13 13 13 12 12 12 13 13 13
21 21 20 19 19 18 18 17 17 17 17 17 17 17 16 16 16 16 15 15 15 15 14 14 14 14 14 14 14 14 14 14 13 13 13 13 12 12 12 12 12 12 12
20 20 19 19 18 17 17 17 17 17 17 17 16 16 16 16 16 15 15 15 15 14 14 14 14 14 14 14 14 14 14 13 13 12 12 12 12 12 12 12 12 12 12
20 19 19 18 18 17 17 17 16 16 16 16 16 16 16 15 15 15 15 15 14 14 14 14 14 14 14 14 14 14 13 12 12 12 12 12 12 12 12 12 12 12 12
19 19 18 18 17 17 17 16 16 16 16 16 16 16 15 15 15 15 14 14 14 14 14 14 13 14 14 14 14 13 13 12 12 12 12 12 12 12 12 12 12 12 12
18 18 18 17 17 17 17 16 16 16 16 16 16 15 15 15 15 14 14 14 14 14 13 13 13 13 13 14 13 13 12 12 11 11 11 12 12 11 12 12 12 12 12
18 17 17 17 17 16 16 16 16 16 16 16 15 15 15 14 14 14 14 14 13 13 13 13 13 13 13 13 13 13 12 11 11 11 11 12 11 11 11 11 11 11 11
18 17 17 16 16 16 16 16 16 16 15 15 15 15 14 14 14 14 13 13 13 13 13 13 13 13 13 13 13 12 12 11 11 11 11 11 11 11 11 11 11 11 11
17 16 16 16 16 16 16 16 16 15 15 15 15 15 14 14 14 13 13 13 13 13 13 13 13 13 13 13 13 12 12 11 11 11 11 11 11 11 11 11 11 11 11
16 16 16 16 16 16 15 15 15 15 15 15 15 14 14 14 13 13 13 13 13 13 13 12 12 12 12 12 12 12 11 11 11 11 11 11 11 11 11 11 11 11 11
16 16 16 15 15 15 15 15 15 15 15 14 14 14 14 13 13 13 12 12 12 12 12 12 12 12 12 12 12 12 11 11 11 11 11 11 11 10 11 11 11 11 11
16 15 15 15 15 15 15 15 15 14 14 14 14 14 13 13 12 12 12 12 12 12 12 12 12 11 12 12 11 11 11 11 11 11 11 11 11 10 10 10 10 10 10
15 15 15 15 15 15 15 14 14 14 14 14 14 13 13 12 12 12 12 12 12 12 12 11 11 11 11 11 11 11 11 10 10 11 11 11 11 10 10 10 10 10 10
15 15 15 15 15 14 15 14 14 14 14 13 13 13 13 12 12 12 12 12 12 11 11 11 11 11 10 11 11 11 10 10 10 10 11 11 11 10 10 10 10 10 10
14 14 14 14 14 14 14 14 14 14 14 14 13 13 12 12 12 12 11 11 11 11 11 11 10 10 10 10 10 10 10 10 10 10 10 10 10 10 10 10 10 10 10
14 14 14 14 14 14 14 14 14 13 13 13 13 13 12 12 12 12 11 11 11 11 11 10 10 10 10 10 10 10 10 10 10 10 10 10 10 10 10 10 10 10 10
14 14 14 14 14 14 14 14 14 13 13 13 13 13 12 12 12 12 11 11 11 11 11 10 10 10 10 10 10 10 10 10 10 10 10 10 10 10 10 10 10 10 10
14 14 14 14 14 14 13 13 13 13 13 13 13 13 12 12 12 12 11 11 11 11 10 10 10 10 10 10 10 10 10 10 10 10 10 10 10 10 10 10 10 10 10
14 14 13 14 13 13 13 13 13 13 13 13 13 13 12 12 12 12 11 11 11 11 11 10 10 10 10 10 10 10 10 10 10 10 10 10 10 10 10 10 10 10 10
13 13 13 13 13 13 13 13 13 13 13 13 13 13 12 12 12 12 11 11 11 11 11 11 10 10 10 10 10 10 10 10 10 10 10 10 10 10 10 10 10 10 10
13 13 13 13 13 13 13 13 12 12 12 12 12 12 12 12 12 12 11 11 11 11 11 11 10 10 10 10 10 10 10 10 10 10 10 10 10 10 10 10 10 10 10
13 13 12 12 12 12 12 12 13 13 13 13 12 12 12 12 12 12 11 11 11 11 10 10 10 10 10 10 10 9 9 10 10 10 10 10 10 10 10 10 10 10 9
12 12 12 12 12 12 12 12 12 12 12 12 12 12 12 12 12 12 12 11 11 11 11 11 10 10 10 10 10 10 10 10 10 10 10 10 10 10 10 10 9 9 9
12 12 12 12 12 12 12 12 12 12 12 12 12 12 12 12 12 12 12 11 11 11 11 11 11 11 10 10 10 10 10 10 10 10 10 10 10 10 10 10 9 9 9
11 11 11 11 11 11 12 12 12 12 12 12 12 12 12 12 12 12 12 12 11 11 11 11 11 10 10 11 10 10 10 10 10 10 9 10 10 10 10 9 9 9 9
11 11 11 11 11 11 11 12 12 12 12 12 12 12 12 12 12 12 12 12 12 11 11 11 11 11 10 10 10 10 10 10 10 10 10 10 10 10 9 9 9 9 9
Wind_Speed
10 17 23 22 22 22 22 22 21 21 20 20 19 19 18 18 18 18 18 18 17 17 17 17 17 17 17 18 18 18 17 17 17 17 17 17 16 16 16 16 15 14 16
12 18 24 22 22 22 22 22 21 21 20 20 19 19 19 19 18 18 18 17 17 17 17 17 17 17 17 17 17 16 16 15 15 15 16 16 16 16 16 16 15 13 16
14 18 23 22 22 22 22 21 21 21 21 21 20 19 19 19 18 18 17 17 17 17 17 17 17 17 17 16 16 15 13 12 11 12 15 14 14 15 16 15 15 15 16
13 16 21 22 21 21 21 22 22 21 21 20 20 19 19 19 18 18 17 17 17 17 17 17 17 17 17 16 15 14 11 9 8 10 12 14 13 14 14 15 15 16 16
11 13 19 23 22 22 21 22 22 21 21 21 20 20 19 19 19 18 17 17 17 17 17 17 17 16 16 15 14 12 10 8 8 12 14 15 12 13 14 14 14 15 15
10 11 18 24 23 22 22 22 22 22 21 21 20 20 19 19 19 18 18 17 17 17 17 17 16 16 15 14 13 10 8 7 8 14 14 14 12 13 13 13 13 14 14
9 10 16 24 24 23 22 22 21 22 21 21 21 20 20 19 19 18 18 17 18 18 17 16 16 15 15 13 11 9 6 6 10 13 13 13 11 12 12 12 12 13 13
8 10 14 21 23 23 22 22 21 22 22 21 21 20 20 19 19 18 18 18 18 17 17 16 15 15 14 12 10 6 4 5 9 12 13 12 11 11 11 11 11 12 12
8 9 10 14 19 22 22 22 22 22 21 21 21 20 20 19 19 18 18 17 17 17 16 15 14 14 13 11 9 5 3 5 6 10 12 10 10 10 10 10 10 11 10
6 8 10 11 14 15 17 21 22 21 21 21 20 20 20 19 18 18 17 17 17 17 16 15 14 13 12 11 8 3 1 3 6 11 11 10 9 9 9 9 9 9 9
6 8 10 11 11 13 14 18 20 20 20 20 19 21 19 16 16 16 16 16 17 17 16 15 14 13 11 9 7 3 1 0 8 11 10 9 8 7 7 7 7 7 7
8 8 9 11 11 12 13 14 14 15 17 17 16 18 16 15 15 15 17 17 16 16 16 15 14 13 10 8 6 5 4 3 9 10 9 8 6 6 6 6 5 5 5
9 9 9 9 11 11 9 10 9 10 13 15 17 17 15 13 13 14 13 13 14 14 12 13 12 10 9 8 7 6 4 3 7 9 10 8 6 5 5 5 4 4 4
9 9 9 9 10 11 10 9 9 8 9 10 14 17 12 8 9 10 8 10 11 10 9 10 8 8 8 9 8 5 3 4 7 10 10 8 5 4 3 3 2 2 2
10 10 9 9 9 10 10 9 10 9 9 12 13 15 14 9 9 9 8 9 10 10 9 7 6 6 5 6 6 5 4 4 7 10 9 8 6 4 3 2 1 1 1
11 11 9 10 9 10 9 9 9 8 9 11 11 14 15 12 9 9 8 7 8 9 9 7 6 5 4 3 3 4 4 4 5 9 10 9 7 5 4 2 1 1 2
10 10 10 10 10 10 10 10 9 9 9 9 11 14 15 14 12 9 8 7 7 10 10 7 6 5 4 3 3 3 3 4 4 6 9 9 8 7 5 4 2 2 3
10 10 10 10 11 10 10 9 8 9 9 8 11 13 15 15 14 10 8 7 9 9 7 5 4 4 4 4 3 2 2 2 2 4 6 7 8 7 7 6 5 4 4
10 11 10 10 11 11 9 8 8 9 9 8 10 11 13 15 15 10 8 8 10 7 5 6 4 4 4 4 3 3 2 3 3 3 4 5 6 6 7 7 6 6 5
9 10 10 10 10 10 8 7 7 8 8 7 8 11 14 14 15 11 8 9 9 7 6 6 5 4 4 4 3 3 2 3 3 3 4 4 5 6 7 7 7 7 7
8 9 10 11 11 10 8 9 9 9 8 7 7 12 14 14 14 11 9 9 9 8 8 8 6 6 4 4 3 1 2 3 4 4 3 3 4 7 8 8 7 7 6
8 10 10 12 12 11 9 9 7 8 8 7 7 10 14 14 14 12 11 9 9 8 9 8 6 5 4 5 4 3 1 2 4 5 4 4 4 5 6 8 7 7 6
7 9 10 10 12 12 10 7 7 6 6 7 8 9 11 14 14 12 12 10 9 9 9 9 8 8 6 5 5 4 3 3 2 3 5 4 4 4 4 6 7 8 7
7 6 8 9 11 12 11 10 11 10 9 8 9 9 11 13 13 13 13 12 10 8 9 9 8 6 7 6 5 4 3 3 2 1 3 4 5 5 5 4 5 7 7
6 5 5 7 9 11 12 12 12 10 8 7 9 11 12 12 13 14 13 12 11 9 10 10 9 8 7 6 5 4 3 1 2 3 3 3 3 4 4 5 4 5 6
3 4 5 6 9 10 11 12 12 12 11 12 11 11 12 10 11 14 13 12 11 10 10 10 9 10 8 7 6 5 4 3 4 3 4 3 3 4 4 3 3 4 5
Wind_Direction
132 149 159 160 159 157 155 153 150 147 144 141 139 136 132 128 124 122 120 117 116 114 112 109 105 101 97 93 90 88 87 86 85 82 78 76 75 71 67 68 68 61 63
137 149 158 160 161 159 158 155 152 149 147 144 142 139 136 133 130 127 124 122 119 117 115 111 107 104 100 97 95 93 91 92 93 91 84 75 73 71 68 68 70 68 67
135 147 158 161 162 161 159 156 153 151 149 147 146 142 139 137 134 130 128 125 123 120 116 112 109 106 102 100 98 96 94 94 95 93 91 82 74 73 72 71 71 70 69
135 146 159 161 163 162 161 158 155 153 151 149 147 145 142 140 137 134 132 130 126 122 119 115 112 108 105 103 100 98 96 90 81 80 85 81 75 75 73 72 70 68 68
132 146 158 161 163 164 163 160 157 155 153 151 150 148 146 143 141 138 135 132 129 125 122 118 115 112 109 106 103 101 96 82 67 78 84 83 78 79 76 72 69 69 67
135 144 155 162 165 165 165 162 160 158 157 155 153 150 148 146 144 140 137 135 131 128 124 122 120 117 114 111 108 104 94 72 71 77 79 84 80 81 79 76 74 71 68
142 146 156 163 167 167 167 165 163 160 158 157 154 152 150 148 145 141 139 136 134 131 127 125 124 120 118 115 112 106 85 58 86 85 82 82 82 81 81 80 77 72 67
144 147 155 164 167 168 168 167 164 162 160 158 155 154 152 149 147 144 142 140 138 135 131 129 128 125 122 119 115 108 69 52 91 95 91 86 85 85 84 79 76 72 66
146 151 157 165 167 171 170 168 165 163 161 159 157 156 152 150 150 148 146 144 143 139 135 134 132 130 126 123 121 114 63 43 77 97 97 90 90 88 84 78 76 71 67
156 160 163 167 166 167 169 169 165 163 162 161 158 154 150 149 149 148 145 146 145 143 140 138 136 135 132 130 131 130 18 12 93 95 97 97 94 91 86 83 78 73 69
172 171 170 173 170 166 168 169 165 162 162 160 156 150 147 148 147 146 144 147 147 146 144 142 141 139 137 139 147 164 240 178 99 93 95 102 101 95 91 88 81 75 68
187 185 181 176 173 168 169 164 166 165 160 159 156 155 155 153 152 149 145 147 148 148 148 148 148 147 145 153 171 196 219 176 118 107 108 111 105 103 100 96 86 76 66
192 194 188 184 175 169 166 166 167 164 165 165 164 165 159 151 145 139 144 145 147 148 150 153 156 168 172 168 179 198 209 140 120 114 119 118 111 111 110 105 92 79 62
197 197 192 187 180 171 167 171 170 172 172 168 168 167 159 150 147 149 152 157 159 161 158 163 178 181 173 167 178 182 167 127 122 119 124 126 122 118 119 112 105 82 57
206 199 197 187 184 175 170 172 174 176 173 168 167 168 160 153 154 153 158 160 164 162 162 171 178 172 174 174 181 165 151 151 136 130 136 140 144 145 146 149 136 61 24
207 198 195 187 184 179 175 173 172 172 172 167 165 165 159 155 155 154 156 158 161 161 166 172 174 168 167 162 166 154 154 159 147 139 148 155 162 169 175 193 214 271 312
210 199 197 190 184 182 179 177 171 166 169 171 167 164 161 157 157 155 155 157 160 163 167 174 174 162 157 154 166 165 153 157 151 148 157 164 171 181 188 201 219 256 285
207 204 200 196 187 184 183 178 171 167 166 171 168 165 162 160 158 156 156 161 162 163 164 167 162 156 153 156 165 166 142 134 152 163 164 165 171 178 189 203 218 244 270
204 199 199 193 190 185 181 178 171 167 164 167 167 164 165 164 162 159 159 163 162 157 160 167 159 155 154 163 166 164 165 173 179 189 182 178 180 174 177 195 211 229 250
203 195 196 195 193 179 176 173 167 167 166 166 171 167 165 166 164 161 160 164 160 158 164 164 161 162 159 165 164 163 182 191 190 198 199 182 181 187 195 198 206 222 235
199 193 197 196 191 179 178 176 173 175 169 170 175 169 167 166 166 162 163 167 163 165 170 168 162 165 166 152 131 145 251 224 210 204 197 186 193 200 204 206 210 215 221
200 197 199 195 190 185 185 181 174 168 172 171 172 175 171 168 167 166 165 168 168 167 171 176 164 163 170 157 150 153 214 263 248 214 197 199 208 201 204 210 211 212 213
205 201 203 196 191 188 181 174 166 167 169 173 177 182 176 170 169 167 169 169 172 170 175 181 172 167 172 176 173 167 169 210 235 230 211 204 207 208 209 206 205 212 215
204 208 203 197 197 190 181 179 178 183 187 184 176 179 179 175 172 172 172 174 175 175 176 181 176 168 165 176 197 211 192 165 157 226 252 221 213 214 212 204 199 208 210
198 194 208 202 199 189 186 186 185 191 190 177 173 178 184 181 180 176 177 177 178 180 180 181 176 173 175 177 181 185 209 223 193 172 228 243 238 227 210 196 193 200 203
202 192 205 205 200 196 193 191 192 193 190 181 178 184 185 182 183 181 181 180 181 182 184 184 181 179 182 184 185 180 173 176 196 191 210 225 231 235 214 193 187 196 199
Height
1470 1472 1474 1477 1480 1483 1486 1490 1493 1496 1498 1501 1504 1506 1508 1510 1512 1514 1515 1517 1518 1519 1520 1521 1522 1523 1524 1524 1525 1526 1526 1527 1527 1527 1527 1527 1527 1527 1527 1527 1527 1527 1527
1469 1471 1474 1477 1480 1483 1486 1489 1492 1496 1498 1501 1504 1506 1508 1510 1512 1514 1515 1517 1518 1520 1521 1522 1523 1524 1524 1525 1526 1526 1527 1528 1528 1528 1528 1528 1528 1528 1528 1528 1528 1528 1528
1468 1470 1473 1477 1480 1483 1486 1489 1492 1495 1498 1501 1503 1506 1508 1510 1512 1513 1515 1517 1518 1520 1521 1522 1523 1524 1525 1525 1526 1527 1528 1529 1529 1529 1529 1529 1529 1529 1529 1529 1530 1530 1529
1468 1470 1473 1476 1480 1483 1486 1489 1492 1495 1498 1500 1503 1505 1507 1509 1511 1513 1515 1517 1519 1520 1521 1522 1523 1524 1525 1526 1527 1528 1529 1530 1530 1531 1531 1530 1530 1531 1531 1531 1531 1531 1530
1468 1471 1473 1476 1479 1483 1486 1489 1492 1495 1497 1500 1502 1505 1507 1509 1511 1513 1515 1517 1518 1520 1521 1523 1524 1525 1526 1527 1528 1529 1530 1531 1531 1532 1531 1531 1532 1532 1532 1532 1532 1532 1532
1468 1471 1473 1476 1479 1482 1485 1488 1491 1494 1497 1499 1502 1504 1507 1509 1511 1513 1515 1516 1518 1520 1521 1523 1524 1525 1526 1527 1528 1529 1531 1531 1532 1532 1532 1532 1533 1533 1533 1533 1533 1533 1532
1468 1470 1472 1475 1478 1481 1484 1487 1490 1493 1496 1499 1501 1503 1506 1508 1510 1512 1514 1516 1518 1520 1521 1523 1524 1525 1527 1528 1529 1530 1531 1532 1533 1533 1533 1533 1534 1534 1534 1534 1534 1533 1533
1466 1468 1471 1474 1477 1480 1483 1486 1489 1492 1495 1498 1500 1503 1505 1507 1510 1512 1514 1516 1518 1519 1521 1523 1524 1526 1527 1528 1530 1531 1532 1532 1533 1534 1534 1534 1534 1535 1535 1534 1534 1534 1534
1465 1467 1469 1473 1475 1478 1481 1484 1487 1490 1494 1496 1499 1501 1504 1506 1509 1511 1513 1515 1517 1519 1521 1523 1524 1526 1527 1528 1530 1531 1532 1533 1534 1534 1534 1534 1535 1535 1535 1535 1535 1534 1534
1463 1465 1468 1470 1473 1476 1479 1482 1486 1489 1492 1495 1497 1500 1503 1506 1508 1510 1512 1514 1516 1518 1520 1522 1524 1526 1527 1529 1530 1532 1533 1534 1534 1535 1535 1535 1535 1536 1535 1535 1535 1535 1534
1461 1463 1465 1468 1471 1473 1476 1479 1483 1487 1490 1493 1496 1499 1501 1504 1506 1509 1511 1513 1516 1518 1520 1522 1523 1525 1527 1528 1530 1532 1533 1534 1534 1535 1535 1535 1536 1536 1536 1535 1535 1535 1534
1458 1460 1463 1465 1467 1470 1473 1476 1479 1483 1487 1490 1493 1496 1499 1502 1505 1507 1510 1512 1515 1517 1519 1521 1523 1525 1527 1528 1530 1531 1533 1534 1534 1534 1535 1535 1536 1536 1536 1535 1535 1535 1534
1454 1457 1459 1462 1465 1467 1470 1473 1476 1479 1483 1487 1490 1494 1497 1500 1503 1505 1508 1511 1513 1516 1518 1520 1522 1524 1526 1528 1530 1531 1532 1534 1534 1534 1535 1535 1535 1536 1535 1535 1535 1534 1534
1451 1453 1456 1459 1461 1464 1466 1469 1472 1476 1479 1483 1487 1491 1494 1497 1500 1503 1506 1509 1511 1514 1516 1519 1521 1523 1525 1527 1529 1530 1532 1533 1533 1533 1534 1534 1535 1535 1535 1535 1534 1534 1533
1447 1449 1451 1455 1457 1460 1463 1465 1469 1472 1476 1480 1484 1488 1491 1494 1497 1501 1504 1507 1510 1512 1515 1517 1520 1522 1525 1526 1528 1530 1531 1532 1533 1532 1533 1533 1534 1534 1534 1534 1533 1533 1532
1442 1444 1447 1450 1453 1456 1459 1462 1465 1469 1472 1476 1480 1484 1488 1491 1494 1498 1502 1505 1508 1511 1513 1516 1519 1521 1523 1525 1527 1528 1530 1531 1531 1531 1532 1532 1532 1533 1533 1533 1532 1532 1531
1437 1440 1443 1445 1448 1451 1454 1458 1461 1464 1468 1472 1476 1480 1484 1488 1492 1495 1499 1502 1506 1509 1512 1515 1517 1520 1522 1524 1525 1527 1528 1529 1530 1530 1530 1531 1531 1531 1531 1531 1531 1531 1530
1433 1435 1438 1441 1444 1446 1450 1454 1457 1460 1464 1467 1471 1476 1480 1484 1488 1492 1496 1500 1503 1506 1509 1512 1515 1517 1520 1521 1523 1525 1526 1527 1528 1529 1529 1529 1529 1529 1529 1530 1529 1529 1528
1428 1430 1433 1436 1439 1442 1445 1449 1453 1457 1460 1464 1467 1471 1476 1480 1485 1489 1493 1496 1500 1503 1507 1510 1513 1515 1517 1519 1521 1523 1524 1525 1526 1527 1527 1527 1528 1528 1527 1527 1527 1527 1526
1423 1426 1428 1431 1434 1437 1441 1445 1448 1452 1456 1460 1463 1467 1471 1476 1481 1485 1489 1493 1497 1500 1503 1507 1510 1513 1515 1517 1519 1521 1522 1523 1523 1524 1525 1525 1525 1525 1525 1525 1525 1524 1523
1418 1420 1422 1425 1429 1432 1436 1439 1443 1446 1451 1456 1460 1463 1467 1472 1477 1481 1485 1489 1493 1496 1500 1503 1506 1510 1512 1514 1517 1518 1520 1520 1521 1522 1522 1522 1523 1523 1523 1522 1522 1521 1521
1413 1415 1417 1420 1424 1427 1431 1434 1438 1443 1447 1451 1456 1460 1463 1467 1472 1476 1481 1485 1489 1493 1496 1500 1503 1506 1509 1511 1513 1515 1517 1519 1518 1519 1519 1519 1520 1520 1520 1520 1519 1519 1518
1408 1411 1413 1415 1419 1422 1426 1430 1434 1439 1443 1446 1450 1454 1458 1462 1467 1472 1476 1480 1485 1488 1492 1495 1499 1501 1504 1507 1510 1512 1513 1514 1515 1516 1516 1516 1517 1517 1517 1517 1516 1516 1515
1404 1407 1409 1411 1414 1417 1421 1425 1428 1432 1435 1439 1444 1449 1454 1458 1462 1468 1472 1476 1480 1484 1488 1491 1495 1497 1500 1502 1506 1508 1510 1511 1512 1512 1513 1513 1513 1514 1514 1514 1513 1513 1512
1400 1402 1405 1407 1409 1412 1416 1419 1423 1427 1431 1435 1440 1445 1449 1454 1458 1462 1467 1471 1475 1479 1483 1487 1490 1493 1496 1498 1501 1503 1506 1507 1508 1509 1509 1510 1510 1510 1510 1510 1510 1509 1509
1397 1399 1401 1403 1405 1408 1411 1414 1418 1422 1425 1429 1434 1439 1444 1448 1453 1457 1462 1466 1470 1474 1478 1482 1485 1489 1491 1494 1497 1499 1501 1502 1504 1505 1506 1506 1507 1507 1507 1507 1507 1506 1505